GW0143 Weather Reports


Display with metric or nautical units.
time (UTC)temp
F
wind
direction
speed
MPH
gust
MPH
rain 1hr
in
rain 24hr
in
rain mn
in
humidity
%
barometer
mb
20260905093518 60 161 8.0 10.0 0.00 0.03 0.00 61 1026.9
20260905092518 60 157 8.0 10.0 0.00 0.03 0.00 62 1026.9
20260905091518 59 157 8.0 10.0 0.00 0.03 0.00 62 1027.0
20260905090521 59 153 8.0 11.0 0.00 0.03 0.00 63 1027.0
20260905085538 59 160 7.0 9.0 0.00 0.03 0.00 64 1027.0
20260905084519 58 163 8.0 10.0 0.00 0.03 0.00 65 1027.0
20260905083519 57 188 7.0 9.0 0.00 0.03 0.00 70 1027.1
20260905082519 58 183 8.0 12.0 0.00 0.03 0.00 66 1027.0
20260905081519 58 163 6.0 8.0 0.00 0.03 0.00 65 1027.1
20260905080559 58 180 8.0 11.0 0.00 0.03 0.00 64 1027.1
20260905075519 58 163 8.0 11.0 0.00 0.03 0.00 64 1027.1
20260905074519 57 158 8.0 10.0 0.00 0.03 0.00 66 1027.1
20260905073520 56 159 6.0 8.0 0.00 0.03 0.00 69 1027.1
20260905072520 57 162 7.0 8.0 0.00 0.03 0.00 68 1027.1
20260905071520 57 159 8.0 10.0 0.00 0.03 0.00 68 1027.1
20260905070518 58 162 7.0 10.0 0.00 0.03 0.00 67 1027.0
20260905065521 58 156 7.0 9.0 0.00 0.03 0.00 64 1027.0
20260905064521 58 178 6.0 8.0 0.00 0.03 0.00 67 1027.0
20260905063521 59 144 6.0 8.0 0.00 0.03 0.00 63 1026.9
20260905062541 58 157 6.0 9.0 0.00 0.03 0.00 64 1026.9
20260905061522 58 153 6.0 8.0 0.00 0.03 0.00 64 1026.8
20260905060521 58 160 7.0 9.0 0.00 0.03 0.00 64 1026.8
20260905055522 59 167 7.0 10.0 0.00 0.03 0.03 62 1026.8
20260905054522 59 161 7.0 9.0 0.00 0.03 0.03 60 1026.7
20260905053522 58 153 5.0 6.0 0.00 0.03 0.03 61 1026.7
20260905052522 57 141 4.0 6.0 0.00 0.03 0.03 64 1026.8
20260905051549 57 143 4.0 5.0 0.00 0.03 0.03 64 1026.9
20260905050517 57 135 4.0 6.0 0.00 0.03 0.03 64 1027.0
20260905045517 58 147 4.0 6.0 0.00 0.03 0.03 63 1027.0
20260905044517 58 151 5.0 7.0 0.00 0.03 0.03 63 1027.0
20260905043523 59 153 5.0 7.0 0.00 0.03 0.03 63 1027.0
20260905042524 58 151 5.0 8.0 0.00 0.03 0.03 65 1027.0
20260905041518 58 153 5.0 7.0 0.00 0.03 0.03 67 1027.1
20260905040518 57 154 5.0 7.0 0.00 0.03 0.03 71 1027.1
20260905035518 58 187 7.0 9.0 0.00 0.03 0.03 73 1027.0
20260905034518 59 190 8.0 10.0 0.00 0.03 0.03 71 1027.0
20260905033519 60 183 8.0 11.0 0.00 0.03 0.03 65 1026.8
20260905032519 60 177 9.0 12.0 0.00 0.03 0.03 63 1026.7
20260905031519 59 172 6.0 9.0 0.00 0.03 0.03 69 1026.7
20260905030519 60 191 8.0 11.0 0.00 0.03 0.03 67 1026.6
20260905025519 62 185 8.0 10.0 0.00 0.03 0.03 59 1026.5
20260905024519 63 150 6.0 9.0 0.00 0.03 0.03 53 1026.1
20260905023519 63 146 7.0 9.0 0.00 0.03 0.03 58 1026.0
20260905022520 62 150 8.0 11.0 0.02 0.03 0.03 58 1026.0
20260905021520 62 175 9.0 11.0 0.02 0.03 0.03 62 1026.0
20260905020517 62 171 10.0 14.0 0.03 0.03 0.03 62 1025.9
20260905015517 61 191 10.0 12.0 0.03 0.03 0.03 66 1026.0
20260905014521 61 201 10.0 15.0 0.03 0.03 0.03 66 1026.0
20260905013518 63 225 10.0 14.0 0.03 0.03 0.03 61 1026.0
20260905012538 65 232 9.0 15.0 0.01 0.01 0.01 58 1026.0
20260905011518 70 219 10.0 14.0 0.01 0.01 0.01 49 1025.8
20260905010518 72 190 11.0 15.0 0.00 0.00 0.00 44 1025.4
20260905005522 72 175 10.0 14.0 0.00 0.00 0.00 42 1025.2
20260905004520 73 167 8.0 12.0 0.00 0.00 0.00 39 1025.1
20260905003519 74 168 8.0 11.0 0.00 0.00 0.00 37 1025.0
20260905002522 76 157 8.0 9.0 0.00 0.00 0.00 35 1024.9
20260905001523 76 183 7.0 9.0 0.00 0.00 0.00 35 1025.0
20260905000543 76 128 3.0 5.0 0.00 0.00 0.00 34 1025.0
20260904235520 76 283 3.0 5.0 0.00 0.00 0.00 31 1024.9
20260904234517 75 269 3.0 5.0 0.00 0.00 0.00 31 1024.9
20260904233523 76 264 3.0 7.0 0.00 0.00 0.00 31 1024.8
20260904232523 76 246 3.0 6.0 0.00 0.00 0.00 30 1024.9
20260904231520 77 266 1.0 3.0 0.00 0.00 0.00 29 1024.9
20260904230521 77 271 2.0 4.0 0.00 0.00 0.00 30 1024.9
20260904225518 77 264 6.0 10.0 0.00 0.00 0.00 30 1024.9
20260904224521 78 209 3.0 5.0 0.00 0.00 0.00 28 1024.9
20260904223518 78 213 4.0 6.0 0.00 0.00 0.00 28 1025.0
20260904222544 76 280 4.0 9.0 0.00 0.00 0.00 30 1025.0
20260904221519 76 299 4.0 6.0 0.00 0.00 0.00 30 1025.1
20260904220519 76 285 5.0 9.0 0.00 0.00 0.00 30 1025.2
20260904215519 77 305 4.0 8.0 0.00 0.00 0.00 30 1025.3
20260904214519 77 294 6.0 11.0 0.00 0.00 0.00 30 1025.4
20260904213519 78 310 5.0 10.0 0.00 0.00 0.00 29 1025.3
20260904212520 80 286 10.0 16.0 0.00 0.00 0.00 27 1025.3
20260904211519 79 304 9.0 15.0 0.00 0.00 0.00 28 1025.3
20260904210520 78 305 5.0 11.0 0.00 0.00 0.00 27 1025.4
20260904205520 78 303 5.0 8.0 0.00 0.00 0.00 27 1025.4
20260904204520 77 274 5.0 10.0 0.00 0.00 0.00 27 1025.6
20260904203521 76 308 5.0 8.0 0.00 0.00 0.00 28 1025.7
20260904202517 76 287 5.0 10.0 0.00 0.00 0.00 28 1025.7
20260904201521 76 275 6.0 10.0 0.00 0.00 0.00 29 1025.8
20260904200521 76 291 6.0 10.0 0.00 0.00 0.00 28 1026.0
20260904195521 76 266 6.0 9.0 0.00 0.00 0.00 28 1026.0
20260904194521 77 251 5.0 9.0 0.00 0.00 0.00 27 1026.0
20260904193521 76 228 5.0 8.0 0.00 0.00 0.00 28 1026.1
20260904192519 76 256 6.0 10.0 0.00 0.00 0.00 29 1026.1
20260904191519 78 262 9.0 13.0 0.00 0.00 0.00 27 1026.2
20260904190519 77 235 7.0 15.0 0.00 0.00 0.00 28 1026.3
20260904185519 77 194 6.0 12.0 0.00 0.00 0.00 30 1026.5
20260904184519 78 245 7.0 15.0 0.00 0.00 0.00 28 1026.5
20260904183519 77 251 7.0 16.0 0.00 0.00 0.00 29 1026.5
20260904182517 76 170 4.0 8.0 0.00 0.00 0.00 31 1026.7
20260904181520 77 230 6.0 14.0 0.00 0.00 0.00 31 1026.7
20260904180520 76 238 7.0 15.0 0.00 0.00 0.00 31 1026.8
20260904175520 76 264 4.0 11.0 0.00 0.00 0.00 31 1026.9
20260904174523 75 311 5.0 9.0 0.00 0.00 0.00 32 1027.0
20260904173517 73 277 4.0 8.0 0.00 0.00 0.00 34 1026.9
20260904172518 73 275 6.0 10.0 0.00 0.00 0.00 34 1027.0
20260904171521 75 303 6.0 11.0 0.00 0.00 0.00 34 1026.9
20260904170518 75 268 7.0 15.0 0.00 0.00 0.00 33 1026.8
20260904165518 73 252 6.0 10.0 0.00 0.00 0.00 35 1026.8
20260904164518 73 254 3.0 9.0 0.00 0.00 0.00 36 1026.8
20260904163518 73 150 5.0 10.0 0.00 0.00 0.00 37 1026.8
20260904162519 72 191 9.0 13.0 0.00 0.00 0.00 37 1026.8
20260904161539 72 188 8.0 13.0 0.00 0.00 0.00 38 1026.7
20260904160519 71 172 5.0 11.0 0.00 0.00 0.00 38 1026.7
20260904155539 71 202 8.0 12.0 0.00 0.00 0.00 39 1026.8
20260904154519 70 195 6.0 9.0 0.00 0.00 0.00 40 1026.7
20260904153519 70 168 6.0 10.0 0.00 0.00 0.00 40 1026.7
20260904152520 69 170 9.0 11.0 0.00 0.00 0.00 42 1026.7
20260904151520 69 182 9.0 13.0 0.00 0.00 0.00 43 1026.6
20260904150520 68 180 9.0 12.0 0.00 0.00 0.00 44 1026.6
20260904145517 67 174 9.0 11.0 0.00 0.00 0.00 46 1026.6
20260904144517 67 178 9.0 12.0 0.00 0.00 0.00 46 1026.5
20260904143520 66 176 9.0 13.0 0.00 0.00 0.00 47 1026.5
20260904142521 65 183 10.0 13.0 0.00 0.00 0.00 48 1026.4
20260904141518 64 185 9.0 12.0 0.00 0.00 0.00 50 1026.3
20260904140519 63 189 9.0 14.0 0.00 0.00 0.00 51 1026.2
20260904135518 62 156 8.0 10.0 0.00 0.00 0.00 54 1026.2
20260904134521 61 153 8.0 9.0 0.00 0.00 0.00 55 1026.0
20260904133522 59 159 8.0 10.0 0.00 0.00 0.00 56 1026.0
20260904132542 58 160 7.0 9.0 0.00 0.00 0.00 59 1025.9
20260904131522 56 180 8.0 10.0 0.00 0.00 0.00 61 1025.8
20260904130522 55 183 7.0 10.0 0.00 0.00 0.00 63 1025.8
20260904125519 55 168 8.0 10.0 0.00 0.00 0.00 64 1025.6
20260904124522 55 166 7.0 10.0 0.00 0.00 0.00 63 1025.5
20260904123522 54 175 6.0 8.0 0.00 0.00 0.00 64 1025.4
20260904122520 54 163 8.0 11.0 0.00 0.00 0.00 63 1025.3
20260904121520 54 159 9.0 10.0 0.00 0.00 0.00 63 1025.2
20260904120523 55 156 8.0 10.0 0.00 0.00 0.00 61 1025.2
20260904115518 55 162 7.0 9.0 0.00 0.00 0.00 60 1025.1
20260904114538 56 193 7.0 9.0 0.00 0.00 0.00 59 1025.0
20260904113520 57 190 9.0 13.0 0.00 0.00 0.00 58 1025.1
20260904112521 57 190 9.0 13.0 0.00 0.00 0.00 56 1025.0
20260904111518 58 194 6.0 9.0 0.00 0.00 0.00 54 1025.0
20260904110538 59 191 8.0 12.0 0.00 0.00 0.00 50 1025.0
20260904105518 59 189 8.0 11.0 0.00 0.00 0.00 52 1025.0
20260904104518 59 190 7.0 12.0 0.00 0.00 0.00 52 1024.9
20260904103517 58 178 5.0 8.0 0.00 0.00 0.00 53 1024.9
20260904102517 58 152 6.0 8.0 0.00 0.00 0.00 52 1024.7
20260904101518 59 157 5.0 8.0 0.00 0.00 0.00 52 1024.6
20260904100518 60 203 6.0 9.0 0.00 0.00 0.00 46 1024.5
20260904095518 60 199 6.0 9.0 0.00 0.00 0.00 49 1024.4
20260904094518 59 188 7.0 10.0 0.00 0.00 0.00 50 1024.3